Torna al catalogo

SL-12 R/B(2)

AttivoGEO
NORAD 20394·ROCKET BODY·🇷🇺 Russia

Lanciato Dec 27, 1989 da Baikonur Cosmodrome

Loading…

TLE

AggiornatoSource: Space-Track

Epoca: Sep 14, 2026, 00:02 UTC

1 20394U 89101D   26257.00146976 -.00000213  00000-0  00000-0 0  9999
2 20394  13.1627 336.8867 0011843 241.0113 118.2909  0.98249660120041

Traccia SL-12 R/B(2) in tempo reale con AllMySat

Download on the App Store